Location: Bad Salzschlirf
(50.3750°N, 9.3000°E)
Time: 04:00:01
(UTC+02:00)

ISS - Pass Details

Date: 09 July 2025
Orbit: 413 x 417 km, 51.6° (Epoch: 12 July)

Event Time Altitude Azimuth Distance (km) Brightness Sun altitude
Rises 03:36:57 0° 287° (WNW) 2,359 -0.1 -11.9°
Reaches altitude 10° 03:39:06 10° 281° (W) 1,494 -1.2 -11.7°
Maximum altitude 03:42:19 46° 207° (SSW) 572 -3.5 -11.5°
Drops below altitude 10° 03:45:32 10° 133° (SE) 1,490 -1.1 -11.2°
Sets 03:47:40 0° 127° (SE) 2,350 0.0 -11.0°
